Back to catalog

DELTA 1 DEB

AliveUNKNOWN
NORAD 18600·DEBRIS·🇺🇸 United States

Launched Jul 29, 1976 from Vandenberg Space Force Base

Loading…

Next Passes (next 24 hours)

TLE

FreshSource: Space-Track

Epoch: Sep 13, 2026, 21:37 UTC

1 18600U 76077FF  26256.90102022  .00000361  00000-0  95069-2 0  9990
2 18600 102.0452 315.8335 0780031 293.1061 116.1602 10.91671503477884

Track DELTA 1 DEB in real time with AllMySat

Download on the App Store